contact:dominique.lefevre@mio.osupytheas.fr, maurice.libes@osupytheas.fr, didier.mallarino@osupytheas.fr
Project:EMSO http://www.emso-fr.org/EMSO-France
Depth: 2436.0 m
Title:EMSO Ligure Ouest : Data MII capteur MICROCAT
DateTime_Computer,Latitude,Longitude,Temperature,Conductivity,Pressure,DateTime_Instrument
DateTime_Computer,Latitude,Longitude,degC,S m-1,dbar,DateTime_Instrument
2019-11-08T00:00:14Z,42.805,6.029,13.2956,4.59958,2469.914,2019-11-08T02:00:41Z
2019-11-08T00:03:17Z,42.805,6.029,13.2957,4.59957,2469.9,2019-11-08T02:03:44Z
2019-11-08T00:06:20Z,42.805,6.029,13.2958,4.59957,2469.9,2019-11-08T02:06:47Z
2019-11-08T00:09:23Z,42.805,6.029,13.2957,4.59956,2469.876,2019-11-08T02:09:51Z
2019-11-08T00:12:27Z,42.805,6.029,13.2958,4.59958,2469.89,2019-11-08T02:12:54Z
2019-11-08T00:15:30Z,42.805,6.029,13.2957,4.59956,2469.914,2019-11-08T02:15:57Z
2019-11-08T00:18:33Z,42.805,6.029,13.2953,4.59956,2469.9,2019-11-08T02:19:00Z
2019-11-08T00:21:36Z,42.805,6.029,13.2958,4.59956,2469.89,2019-11-08T02:22:03Z
2019-11-08T00:24:39Z,42.805,6.029,13.2958,4.59957,2469.914,2019-11-08T02:25:07Z
2019-11-08T00:27:43Z,42.805,6.029,13.2958,4.59957,2469.9,2019-11-08T02:28:10Z
2019-11-08T00:30:46Z,42.805,6.029,13.2956,4.59956,2469.89,2019-11-08T02:31:14Z
2019-11-08T00:33:50Z,42.805,6.029,13.2959,4.59956,2469.937,2019-11-08T02:34:17Z
2019-11-08T00:36:53Z,42.805,6.029,13.2956,4.59956,2469.89,2019-11-08T02:37:20Z
2019-11-08T00:39:56Z,42.805,6.029,13.2953,4.59957,2469.876,2019-11-08T02:40:23Z
2019-11-08T00:42:59Z,42.805,6.029,13.2959,4.59956,2469.853,2019-11-08T02:43:26Z
2019-11-08T00:46:03Z,42.805,6.029,13.2956,4.59956,2469.89,2019-11-08T02:46:30Z
2019-11-08T00:49:06Z,42.805,6.029,13.2958,4.59957,2469.914,2019-11-08T02:49:33Z
2019-11-08T00:52:09Z,42.805,6.029,13.2955,4.59955,2469.9,2019-11-08T02:52:36Z
2019-11-08T00:55:12Z,42.805,6.029,13.2956,4.59955,2469.9,2019-11-08T02:55:39Z
2019-11-08T00:58:15Z,42.805,6.029,13.2953,4.59956,2469.89,2019-11-08T02:58:43Z
2019-11-08T01:01:19Z,42.805,6.029,13.2958,4.59956,2469.876,2019-11-08T03:01:46Z
2019-11-08T01:04:22Z,42.805,6.029,13.2957,4.59954,2469.9,2019-11-08T03:04:49Z
2019-11-08T01:07:25Z,42.805,6.029,13.2955,4.59956,2469.914,2019-11-08T03:07:52Z
2019-11-08T01:10:28Z,42.805,6.029,13.2957,4.59956,2469.914,2019-11-08T03:10:55Z
2019-11-08T01:13:31Z,42.805,6.029,13.2956,4.59956,2469.876,2019-11-08T03:13:59Z
2019-11-08T01:16:35Z,42.805,6.029,13.2955,4.59956,2469.923,2019-11-08T03:17:02Z
2019-11-08T01:19:38Z,42.805,6.029,13.2956,4.59956,2469.937,2019-11-08T03:20:05Z
2019-11-08T01:22:41Z,42.805,6.029,13.2957,4.59955,2469.9,2019-11-08T03:23:08Z
2019-11-08T01:25:44Z,42.805,6.029,13.2958,4.59956,2469.947,2019-11-08T03:26:11Z
2019-11-08T01:28:47Z,42.805,6.029,13.2954,4.59956,2469.9,2019-11-08T03:29:15Z
2019-11-08T01:31:51Z,42.805,6.029,13.2955,4.59957,2469.937,2019-11-08T03:32:18Z
2019-11-08T01:34:54Z,42.805,6.029,13.2956,4.59956,2469.947,2019-11-08T03:35:21Z
2019-11-08T01:37:57Z,42.805,6.029,13.2954,4.59957,2469.937,2019-11-08T03:38:24Z
2019-11-08T01:41:00Z,42.805,6.029,13.2952,4.59960,2469.914,2019-11-08T03:41:28Z
2019-11-08T01:44:04Z,42.805,6.029,13.2959,4.59955,2469.914,2019-11-08T03:44:31Z
2019-11-08T01:47:07Z,42.805,6.029,13.2960,4.59956,2469.937,2019-11-08T03:47:34Z
2019-11-08T01:50:10Z,42.805,6.029,13.2959,4.59956,2469.96,2019-11-08T03:50:37Z
2019-11-08T01:53:13Z,42.805,6.029,13.2958,4.59957,2469.923,2019-11-08T03:53:41Z
2019-11-08T01:56:17Z,42.805,6.029,13.2955,4.59956,2469.89,2019-11-08T03:56:44Z
2019-11-08T01:59:20Z,42.805,6.029,13.2956,4.59957,2469.923,2019-11-08T03:59:47Z
2019-11-08T02:02:23Z,42.805,6.029,13.2957,4.59955,2469.937,2019-11-08T04:02:50Z
2019-11-08T02:05:26Z,42.805,6.029,13.2957,4.59954,2469.937,2019-11-08T04:05:54Z
2019-11-08T02:08:30Z,42.805,6.029,13.2958,4.59956,2469.937,2019-11-08T04:08:57Z
2019-11-08T02:11:33Z,42.805,6.029,13.2958,4.59956,2469.923,2019-11-08T04:12:00Z
2019-11-08T02:14:36Z,42.805,6.029,13.2955,4.59955,2469.947,2019-11-08T04:15:03Z
2019-11-08T02:17:39Z,42.805,6.029,13.2957,4.59956,2469.947,2019-11-08T04:18:06Z
2019-11-08T02:20:43Z,42.805,6.029,13.2958,4.59956,2469.947,2019-11-08T04:21:10Z
2019-11-08T02:23:46Z,42.805,6.029,13.2958,4.59956,2469.97,2019-11-08T04:24:13Z
2019-11-08T02:26:49Z,42.805,6.029,13.2957,4.59956,2469.923,2019-11-08T04:27:16Z
2019-11-08T02:29:52Z,42.805,6.029,13.2960,4.59955,2469.96,2019-11-08T04:30:19Z
2019-11-08T02:32:55Z,42.805,6.029,13.2957,4.59955,2469.923,2019-11-08T04:33:22Z
2019-11-08T02:35:59Z,42.805,6.029,13.2956,4.59955,2469.947,2019-11-08T04:36:26Z
2019-11-08T02:39:02Z,42.805,6.029,13.2955,4.59955,2469.96,2019-11-08T04:39:29Z
2019-11-08T02:42:05Z,42.805,6.029,13.2958,4.59957,2469.947,2019-11-08T04:42:32Z
2019-11-08T02:45:08Z,42.805,6.029,13.2961,4.59956,2469.937,2019-11-08T04:45:35Z
2019-11-08T02:48:11Z,42.805,6.029,13.2960,4.59956,2469.96,2019-11-08T04:48:39Z
2019-11-08T02:51:15Z,42.805,6.029,13.2953,4.59955,2469.947,2019-11-08T04:51:42Z
2019-11-08T02:54:18Z,42.805,6.029,13.2958,4.59955,2469.97,2019-11-08T04:54:45Z
2019-11-08T02:57:21Z,42.805,6.029,13.2954,4.59956,2469.96,2019-11-08T04:57:48Z
2019-11-08T03:00:24Z,42.805,6.029,13.2955,4.59957,2469.96,2019-11-08T05:00:52Z
2019-11-08T03:03:28Z,42.805,6.029,13.2955,4.59955,2469.923,2019-11-08T05:03:55Z
2019-11-08T03:06:31Z,42.805,6.029,13.2959,4.59955,2469.97,2019-11-08T05:06:58Z
2019-11-08T03:09:34Z,42.805,6.029,13.2957,4.59956,2469.96,2019-11-08T05:10:01Z
2019-11-08T03:12:37Z,42.805,6.029,13.2957,4.59955,2469.979,2019-11-08T05:13:04Z
2019-11-08T03:15:40Z,42.805,6.029,13.2957,4.59956,2470.007,2019-11-08T05:16:08Z
2019-11-08T03:18:44Z,42.805,6.029,13.2958,4.59954,2469.993,2019-11-08T05:19:11Z
2019-11-08T03:21:47Z,42.805,6.029,13.2955,4.59955,2469.993,2019-11-08T05:22:14Z
2019-11-08T03:24:50Z,42.805,6.029,13.2952,4.59955,2469.984,2019-11-08T05:25:17Z
2019-11-08T03:27:53Z,42.805,6.029,13.2957,4.59954,2469.97,2019-11-08T05:28:20Z
2019-11-08T03:30:56Z,42.805,6.029,13.2955,4.59955,2469.984,2019-11-08T05:31:24Z
2019-11-08T03:34:00Z,42.805,6.029,13.2953,4.59956,2469.96,2019-11-08T05:34:27Z
2019-11-08T03:37:03Z,42.805,6.029,13.2960,4.59956,2469.97,2019-11-08T05:37:30Z
2019-11-08T03:40:06Z,42.805,6.029,13.2961,4.59956,2469.993,2019-11-08T05:40:33Z
2019-11-08T03:43:09Z,42.805,6.029,13.2955,4.59957,2469.993,2019-11-08T05:43:37Z
2019-11-08T03:46:12Z,42.805,6.029,13.2958,4.59957,2469.984,2019-11-08T05:46:40Z
2019-11-08T03:49:16Z,42.805,6.029,13.2961,4.59956,2470.007,2019-11-08T05:49:43Z
2019-11-08T03:52:19Z,42.805,6.029,13.2961,4.59957,2470.007,2019-11-08T05:52:46Z
2019-11-08T03:55:22Z,42.805,6.029,13.2961,4.59959,2470.007,2019-11-08T05:55:50Z
2019-11-08T03:58:26Z,42.805,6.029,13.2961,4.59957,2469.993,2019-11-08T05:58:53Z
2019-11-08T04:01:29Z,42.805,6.029,13.2956,4.59957,2469.993,2019-11-08T06:01:56Z
2019-11-08T04:04:32Z,42.805,6.029,13.2958,4.59957,2470.007,2019-11-08T06:04:59Z
2019-11-08T04:07:35Z,42.805,6.029,13.2961,4.59961,2469.96,2019-11-08T06:08:02Z
2019-11-08T04:10:38Z,42.805,6.029,13.2959,4.59959,2470.007,2019-11-08T06:11:06Z
2019-11-08T04:13:42Z,42.805,6.029,13.2955,4.59957,2469.97,2019-11-08T06:14:09Z
2019-11-08T04:16:45Z,42.805,6.029,13.2958,4.59958,2469.97,2019-11-08T06:17:12Z
2019-11-08T04:19:48Z,42.805,6.029,13.2962,4.59957,2469.984,2019-11-08T06:20:15Z
2019-11-08T04:22:51Z,42.805,6.029,13.2961,4.59960,2470.03,2019-11-08T06:23:18Z
2019-11-08T04:25:54Z,42.805,6.029,13.2961,4.59957,2469.993,2019-11-08T06:26:22Z
2019-11-08T04:28:58Z,42.805,6.029,13.2960,4.59957,2469.993,2019-11-08T06:29:25Z
2019-11-08T04:32:01Z,42.805,6.029,13.2959,4.59958,2470.007,2019-11-08T06:32:28Z
2019-11-08T04:35:04Z,42.805,6.029,13.2961,4.59960,2470.007,2019-11-08T06:35:31Z
2019-11-08T04:38:07Z,42.805,6.029,13.2958,4.59958,2469.97,2019-11-08T06:38:34Z
2019-11-08T04:41:10Z,42.805,6.029,13.2962,4.59957,2470.007,2019-11-08T06:41:38Z
2019-11-08T04:44:14Z,42.805,6.029,13.2964,4.59957,2470.017,2019-11-08T06:44:41Z
2019-11-08T04:47:17Z,42.805,6.029,13.2961,4.59957,2469.97,2019-11-08T06:47:44Z
2019-11-08T04:50:20Z,42.805,6.029,13.2962,4.59958,2470.007,2019-11-08T06:50:47Z
2019-11-08T04:53:23Z,42.805,6.029,13.2961,4.59959,2469.993,2019-11-08T06:53:51Z
2019-11-08T04:56:26Z,42.805,6.029,13.2960,4.59957,2470.03,2019-11-08T06:56:54Z
2019-11-08T04:59:30Z,42.805,6.029,13.2964,4.59958,2469.993,2019-11-08T06:59:57Z
2019-11-08T05:02:33Z,42.805,6.029,13.2958,4.59957,2470.007,2019-11-08T07:03:00Z
2019-11-08T05:05:36Z,42.805,6.029,13.2960,4.59957,2470.007,2019-11-08T07:06:03Z
2019-11-08T05:08:39Z,42.805,6.029,13.2961,4.59958,2469.993,2019-11-08T07:09:07Z
2019-11-08T05:11:43Z,42.805,6.029,13.2957,4.59958,2470.017,2019-11-08T07:12:10Z
2019-11-08T05:14:46Z,42.805,6.029,13.2961,4.59958,2470.03,2019-11-08T07:15:13Z
2019-11-08T05:17:49Z,42.805,6.029,13.2966,4.59957,2469.97,2019-11-08T07:18:16Z
2019-11-08T05:20:52Z,42.805,6.029,13.2961,4.59958,2470.017,2019-11-08T07:21:20Z
2019-11-08T05:23:55Z,42.805,6.029,13.2959,4.59960,2469.97,2019-11-08T07:24:23Z
2019-11-08T05:26:59Z,42.805,6.029,13.2961,4.59957,2469.993,2019-11-08T07:27:26Z
2019-11-08T05:30:02Z,42.805,6.029,13.2961,4.59958,2470.007,2019-11-08T07:30:29Z
2019-11-08T05:33:05Z,42.805,6.029,13.2958,4.59958,2470.017,2019-11-08T07:33:33Z
2019-11-08T05:36:09Z,42.805,6.029,13.2958,4.59957,2470.017,2019-11-08T07:36:36Z
2019-11-08T05:39:12Z,42.805,6.029,13.2962,4.59958,2470.017,2019-11-08T07:39:39Z
2019-11-08T05:42:15Z,42.805,6.029,13.2963,4.59958,2470.017,2019-11-08T07:42:42Z
2019-11-08T05:45:18Z,42.805,6.029,13.2959,4.59957,2470.017,2019-11-08T07:45:45Z
2019-11-08T05:48:21Z,42.805,6.029,13.2960,4.59957,2469.993,2019-11-08T07:48:49Z
2019-11-08T05:51:25Z,42.805,6.029,13.2955,4.59958,2470.053,2019-11-08T07:51:52Z
2019-11-08T05:54:28Z,42.805,6.029,13.2958,4.59957,2470.007,2019-11-08T07:54:55Z
2019-11-08T05:57:31Z,42.805,6.029,13.2961,4.59958,2469.993,2019-11-08T07:57:58Z
2019-11-08T06:00:34Z,42.805,6.029,13.2958,4.59957,2469.993,2019-11-08T08:01:01Z
2019-11-08T06:03:37Z,42.805,6.029,13.2958,4.59958,2470.017,2019-11-08T08:04:05Z
2019-11-08T06:06:41Z,42.805,6.029,13.2957,4.59958,2470.03,2019-11-08T08:07:08Z
2019-11-08T06:09:44Z,42.805,6.029,13.2961,4.59956,2470.007,2019-11-08T08:10:11Z
2019-11-08T06:12:47Z,42.805,6.029,13.2960,4.59956,2470.017,2019-11-08T08:13:14Z
2019-11-08T06:15:50Z,42.805,6.029,13.2961,4.59956,2469.993,2019-11-08T08:16:18Z
2019-11-08T06:18:54Z,42.805,6.029,13.2960,4.59958,2470.007,2019-11-08T08:19:21Z
2019-11-08T06:21:57Z,42.805,6.029,13.2957,4.59956,2469.97,2019-11-08T08:22:24Z
2019-11-08T06:25:00Z,42.805,6.029,13.2961,4.59956,2470.017,2019-11-08T08:25:27Z
2019-11-08T06:28:03Z,42.805,6.029,13.2958,4.59956,2470.007,2019-11-08T08:28:30Z
2019-11-08T06:31:06Z,42.805,6.029,13.2957,4.59957,2470.03,2019-11-08T08:31:34Z
2019-11-08T06:34:10Z,42.805,6.029,13.2956,4.59956,2470.017,2019-11-08T08:34:37Z
2019-11-08T06:37:13Z,42.805,6.029,13.2960,4.59956,2469.993,2019-11-08T08:37:40Z
2019-11-08T06:40:16Z,42.805,6.029,13.2959,4.59958,2469.993,2019-11-08T08:40:43Z
2019-11-08T06:43:19Z,42.805,6.029,13.2956,4.59959,2469.993,2019-11-08T08:43:46Z
2019-11-08T06:46:22Z,42.805,6.029,13.2958,4.59956,2470.017,2019-11-08T08:46:50Z
2019-11-08T06:49:26Z,42.805,6.029,13.2959,4.59956,2469.984,2019-11-08T08:49:53Z
2019-11-08T06:52:29Z,42.805,6.029,13.2958,4.59956,2470.007,2019-11-08T08:52:56Z
2019-11-08T06:55:32Z,42.805,6.029,13.2957,4.59956,2470.007,2019-11-08T08:55:59Z
2019-11-08T06:58:35Z,42.805,6.029,13.2957,4.59956,2469.979,2019-11-08T08:59:03Z
2019-11-08T07:01:38Z,42.805,6.029,13.2961,4.59957,2469.993,2019-11-08T09:02:06Z
2019-11-08T07:04:42Z,42.805,6.029,13.2960,4.59956,2470.007,2019-11-08T09:05:09Z
2019-11-08T07:07:45Z,42.805,6.029,13.2961,4.59956,2469.97,2019-11-08T09:08:12Z
2019-11-08T07:10:48Z,42.805,6.029,13.2958,4.59957,2469.97,2019-11-08T09:11:15Z
2019-11-08T07:13:51Z,42.805,6.029,13.2959,4.59956,2470.007,2019-11-08T09:14:18Z
2019-11-08T07:16:54Z,42.805,6.029,13.2960,4.59956,2470.007,2019-11-08T09:17:22Z
2019-11-08T07:19:58Z,42.805,6.029,13.2963,4.59957,2470.007,2019-11-08T09:20:25Z
2019-11-08T07:23:01Z,42.805,6.029,13.2957,4.59956,2469.97,2019-11-08T09:23:28Z
2019-11-08T07:26:04Z,42.805,6.029,13.2958,4.59956,2469.993,2019-11-08T09:26:31Z
2019-11-08T07:29:07Z,42.805,6.029,13.2959,4.59956,2470.007,2019-11-08T09:29:35Z
2019-11-08T07:32:11Z,42.805,6.029,13.2955,4.59956,2469.984,2019-11-08T09:32:38Z
2019-11-08T07:35:14Z,42.805,6.029,13.2958,4.59957,2469.993,2019-11-08T09:35:41Z
2019-11-08T07:38:17Z,42.805,6.029,13.2961,4.59957,2469.96,2019-11-08T09:38:44Z
2019-11-08T07:41:20Z,42.805,6.029,13.2960,4.59957,2469.97,2019-11-08T09:41:48Z
2019-11-08T07:44:24Z,42.805,6.029,13.2957,4.59957,2469.984,2019-11-08T09:44:51Z
2019-11-08T07:47:27Z,42.805,6.029,13.2957,4.59956,2469.993,2019-11-08T09:47:54Z
2019-11-08T07:50:30Z,42.805,6.029,13.2959,4.59956,2469.947,2019-11-08T09:50:57Z
2019-11-08T07:53:33Z,42.805,6.029,13.2962,4.59956,2469.993,2019-11-08T09:54:01Z
2019-11-08T07:56:37Z,42.805,6.029,13.2958,4.59959,2469.984,2019-11-08T09:57:04Z
2019-11-08T07:59:40Z,42.805,6.029,13.2958,4.59958,2469.984,2019-11-08T10:00:07Z
2019-11-08T08:02:43Z,42.805,6.029,13.2961,4.59956,2469.984,2019-11-08T10:03:10Z
2019-11-08T08:05:46Z,42.805,6.029,13.2958,4.59956,2469.97,2019-11-08T10:06:13Z
2019-11-08T08:08:49Z,42.805,6.029,13.2963,4.59958,2469.947,2019-11-08T10:09:17Z
2019-11-08T08:11:53Z,42.805,6.029,13.2958,4.59956,2469.984,2019-11-08T10:12:20Z
2019-11-08T08:14:56Z,42.805,6.029,13.2959,4.59956,2469.96,2019-11-08T10:15:23Z
2019-11-08T08:17:59Z,42.805,6.029,13.2955,4.59957,2469.947,2019-11-08T10:18:26Z
2019-11-08T08:21:02Z,42.805,6.029,13.2958,4.59956,2469.97,2019-11-08T10:21:30Z
2019-11-08T08:24:06Z,42.805,6.029,13.2956,4.59956,2469.984,2019-11-08T10:24:33Z
2019-11-08T08:27:09Z,42.805,6.029,13.2958,4.59961,2469.97,2019-11-08T10:27:36Z
2019-11-08T08:30:12Z,42.805,6.029,13.2958,4.59958,2469.97,2019-11-08T10:30:39Z
2019-11-08T08:33:15Z,42.805,6.029,13.2956,4.59957,2469.947,2019-11-08T10:33:42Z
2019-11-08T08:36:18Z,42.805,6.029,13.2955,4.59957,2469.96,2019-11-08T10:36:46Z
2019-11-08T08:39:22Z,42.805,6.029,13.2958,4.59956,2469.97,2019-11-08T10:39:49Z
2019-11-08T08:42:25Z,42.805,6.029,13.2957,4.59956,2469.984,2019-11-08T10:42:52Z
2019-11-08T08:45:28Z,42.805,6.029,13.2958,4.59956,2469.947,2019-11-08T10:45:55Z
2019-11-08T08:48:31Z,42.805,6.029,13.2961,4.59956,2469.984,2019-11-08T10:48:58Z
2019-11-08T08:51:34Z,42.805,6.029,13.2960,4.59956,2469.97,2019-11-08T10:52:02Z
2019-11-08T08:54:38Z,42.805,6.029,13.2960,4.59958,2469.947,2019-11-08T10:55:05Z
2019-11-08T08:57:41Z,42.805,6.029,13.2959,4.59958,2469.947,2019-11-08T10:58:08Z
2019-11-08T09:00:44Z,42.805,6.029,13.2955,4.59958,2469.97,2019-11-08T11:01:11Z
2019-11-08T09:03:47Z,42.805,6.029,13.2958,4.59957,2469.97,2019-11-08T11:04:14Z
2019-11-08T09:06:50Z,42.805,6.029,13.2959,4.59957,2469.97,2019-11-08T11:07:18Z
2019-11-08T09:09:54Z,42.805,6.029,13.2962,4.59956,2469.947,2019-11-08T11:10:21Z
2019-11-08T09:12:57Z,42.805,6.029,13.2959,4.59958,2469.947,2019-11-08T11:13:24Z
2019-11-08T09:16:00Z,42.805,6.029,13.2961,4.59955,2469.96,2019-11-08T11:16:27Z
2019-11-08T09:19:03Z,42.805,6.029,13.2957,4.59958,2469.947,2019-11-08T11:19:31Z
2019-11-08T09:22:06Z,42.805,6.029,13.2958,4.59956,2469.947,2019-11-08T11:22:34Z
2019-11-08T09:25:10Z,42.805,6.029,13.2962,4.59958,2469.96,2019-11-08T11:25:37Z
2019-11-08T09:28:13Z,42.805,6.029,13.2958,4.59958,2469.96,2019-11-08T11:28:40Z
2019-11-08T09:31:16Z,42.805,6.029,13.2958,4.59956,2469.923,2019-11-08T11:31:44Z
2019-11-08T09:34:20Z,42.805,6.029,13.2958,4.59957,2469.96,2019-11-08T11:34:47Z
2019-11-08T09:37:23Z,42.805,6.029,13.2958,4.59956,2469.947,2019-11-08T11:37:50Z
2019-11-08T09:40:26Z,42.805,6.029,13.2958,4.59958,2469.947,2019-11-08T11:40:53Z
2019-11-08T09:43:29Z,42.805,6.029,13.2960,4.59957,2469.947,2019-11-08T11:43:56Z
2019-11-08T09:46:33Z,42.805,6.029,13.2955,4.59957,2469.947,2019-11-08T11:47:00Z
2019-11-08T09:49:36Z,42.805,6.029,13.2957,4.59956,2469.947,2019-11-08T11:50:03Z
2019-11-08T09:52:39Z,42.805,6.029,13.2957,4.59965,2469.947,2019-11-08T11:53:06Z
2019-11-08T09:55:42Z,42.805,6.029,13.2961,4.59956,2469.97,2019-11-08T11:56:09Z
2019-11-08T09:58:45Z,42.805,6.029,13.2961,4.59957,2469.947,2019-11-08T11:59:13Z
2019-11-08T10:01:49Z,42.805,6.029,13.2957,4.59956,2469.993,2019-11-08T12:02:16Z
2019-11-08T10:04:52Z,42.805,6.029,13.2958,4.59958,2469.96,2019-11-08T12:05:19Z
2019-11-08T10:07:55Z,42.805,6.029,13.2956,4.59961,2469.947,2019-11-08T12:08:22Z
2019-11-08T10:10:58Z,42.805,6.029,13.2961,4.59956,2469.923,2019-11-08T12:11:25Z
2019-11-08T10:14:01Z,42.805,6.029,13.2958,4.59957,2469.96,2019-11-08T12:14:29Z
2019-11-08T10:17:05Z,42.805,6.029,13.2961,4.59956,2469.96,2019-11-08T12:17:32Z
2019-11-08T10:20:08Z,42.805,6.029,13.2954,4.59956,2469.96,2019-11-08T12:20:35Z
2019-11-08T10:23:11Z,42.805,6.029,13.2956,4.59957,2469.937,2019-11-08T12:23:38Z
2019-11-08T10:26:14Z,42.805,6.029,13.2958,4.59956,2469.96,2019-11-08T12:26:41Z
2019-11-08T10:29:18Z,42.805,6.029,13.2958,4.59957,2469.947,2019-11-08T12:29:45Z
2019-11-08T10:32:21Z,42.805,6.029,13.2957,4.59958,2469.96,2019-11-08T12:32:48Z
2019-11-08T10:35:24Z,42.805,6.029,13.2957,4.59966,2469.9,2019-11-08T12:35:51Z
2019-11-08T10:38:27Z,42.805,6.029,13.2958,4.59959,2469.96,2019-11-08T12:38:54Z
2019-11-08T10:41:30Z,42.805,6.029,13.2958,4.59958,2469.937,2019-11-08T12:41:58Z
2019-11-08T10:44:34Z,42.805,6.029,13.2958,4.59957,2469.923,2019-11-08T12:45:01Z
2019-11-08T10:47:37Z,42.805,6.029,13.2958,4.59960,2469.937,2019-11-08T12:48:04Z
2019-11-08T10:50:40Z,42.805,6.029,13.2960,4.59957,2469.937,2019-11-08T12:51:08Z
2019-11-08T10:53:44Z,42.805,6.029,13.2959,4.59956,2469.937,2019-11-08T12:54:11Z
2019-11-08T10:56:47Z,42.805,6.029,13.2957,4.59957,2469.923,2019-11-08T12:57:14Z
2019-11-08T10:59:50Z,42.805,6.029,13.2957,4.59958,2469.947,2019-11-08T13:00:17Z
2019-11-08T11:02:53Z,42.805,6.029,13.2963,4.59964,2469.96,2019-11-08T13:03:20Z
2019-11-08T11:05:56Z,42.805,6.029,13.2956,4.59958,2469.923,2019-11-08T13:06:24Z
2019-11-08T11:09:00Z,42.805,6.029,13.2957,4.59956,2469.937,2019-11-08T13:09:27Z
2019-11-08T11:12:03Z,42.805,6.029,13.2958,4.59957,2469.937,2019-11-08T13:12:30Z
2019-11-08T11:15:06Z,42.805,6.029,13.2959,4.59957,2469.947,2019-11-08T13:15:33Z
2019-11-08T11:18:09Z,42.805,6.029,13.2959,4.59957,2469.923,2019-11-08T13:18:37Z
2019-11-08T11:21:13Z,42.805,6.029,13.2955,4.59957,2469.947,2019-11-08T13:21:40Z
2019-11-08T11:24:16Z,42.805,6.029,13.2959,4.59958,2469.914,2019-11-08T13:24:43Z
2019-11-08T11:27:19Z,42.805,6.029,13.2960,4.59957,2469.937,2019-11-08T13:27:46Z
2019-11-08T11:30:22Z,42.805,6.029,13.2955,4.59972,2469.96,2019-11-08T13:30:50Z
2019-11-08T11:33:26Z,42.805,6.029,13.2957,4.59958,2469.937,2019-11-08T13:33:53Z
2019-11-08T11:36:29Z,42.805,6.029,13.2961,4.59957,2469.923,2019-11-08T13:36:56Z
2019-11-08T11:39:32Z,42.805,6.029,13.2959,4.59956,2469.923,2019-11-08T13:39:59Z
2019-11-08T11:42:35Z,42.805,6.029,13.2961,4.59956,2469.923,2019-11-08T13:43:02Z
2019-11-08T11:45:38Z,42.805,6.029,13.2959,4.59956,2469.923,2019-11-08T13:46:06Z
2019-11-08T11:48:42Z,42.805,6.029,13.2958,4.59957,2469.923,2019-11-08T13:49:09Z
2019-11-08T11:51:45Z,42.805,6.029,13.2955,4.59956,2469.96,2019-11-08T13:52:12Z
2019-11-08T11:54:48Z,42.805,6.029,13.2960,4.59958,2469.937,2019-11-08T13:55:15Z
2019-11-08T11:57:51Z,42.805,6.029,13.2953,4.59957,2469.914,2019-11-08T13:58:19Z
2019-11-08T12:00:55Z,42.805,6.029,13.2957,4.59958,2469.984,2019-11-08T14:01:22Z
2019-11-08T12:03:58Z,42.805,6.029,13.2961,4.59966,2469.984,2019-11-08T14:04:25Z
2019-11-08T12:07:01Z,42.805,6.029,13.2958,4.59958,2469.951,2019-11-08T14:07:28Z
2019-11-08T12:10:04Z,42.805,6.029,13.2958,4.59956,2469.937,2019-11-08T14:10:32Z
2019-11-08T12:13:08Z,42.805,6.029,13.2958,4.59956,2469.923,2019-11-08T14:13:35Z
2019-11-08T12:16:11Z,42.805,6.029,13.2958,4.59956,2469.947,2019-11-08T14:16:38Z
2019-11-08T12:19:14Z,42.805,6.029,13.2958,4.59957,2469.947,2019-11-08T14:19:41Z
2019-11-08T12:22:17Z,42.805,6.029,13.2960,4.59957,2469.947,2019-11-08T14:22:44Z
2019-11-08T12:25:20Z,42.805,6.029,13.2966,4.59957,2469.96,2019-11-08T14:25:48Z
2019-11-08T12:28:24Z,42.805,6.029,13.2963,4.59958,2469.923,2019-11-08T14:28:51Z
2019-11-08T12:31:27Z,42.805,6.029,13.2961,4.59964,2469.956,2019-11-08T14:31:54Z
2019-11-08T12:34:30Z,42.805,6.029,13.2959,4.59958,2469.947,2019-11-08T14:34:57Z
2019-11-08T12:37:33Z,42.805,6.029,13.2958,4.59958,2469.97,2019-11-08T14:38:01Z
2019-11-08T12:40:36Z,42.805,6.029,13.2957,4.59958,2469.937,2019-11-08T14:41:04Z
2019-11-08T12:43:40Z,42.805,6.029,13.2960,4.59959,2469.937,2019-11-08T14:44:07Z
2019-11-08T12:46:43Z,42.805,6.029,13.2958,4.59958,2469.923,2019-11-08T14:47:10Z
2019-11-08T12:49:46Z,42.805,6.029,13.2961,4.59958,2469.947,2019-11-08T14:50:13Z
2019-11-08T12:52:49Z,42.805,6.029,13.2960,4.59962,2469.923,2019-11-08T14:53:17Z
2019-11-08T12:55:53Z,42.805,6.029,13.2957,4.59961,2469.947,2019-11-08T14:56:20Z
2019-11-08T12:58:56Z,42.805,6.029,13.2956,4.59958,2469.96,2019-11-08T14:59:23Z
2019-11-08T13:01:59Z,42.805,6.029,13.2958,4.59959,2469.97,2019-11-08T15:02:26Z
2019-11-08T13:05:02Z,42.805,6.029,13.2959,4.59960,2469.96,2019-11-08T15:05:30Z
2019-11-08T13:08:06Z,42.805,6.029,13.2957,4.59964,2469.923,2019-11-08T15:08:33Z
2019-11-08T13:11:09Z,42.805,6.029,13.2963,4.59962,2469.947,2019-11-08T15:11:36Z
2019-11-08T13:14:12Z,42.805,6.029,13.2955,4.59960,2469.984,2019-11-08T15:14:39Z
2019-11-08T13:17:15Z,42.805,6.029,13.2958,4.59961,2469.947,2019-11-08T15:17:42Z
2019-11-08T13:20:18Z,42.805,6.029,13.2958,4.59961,2469.937,2019-11-08T15:20:46Z
2019-11-08T13:23:22Z,42.805,6.029,13.2958,4.59961,2469.947,2019-11-08T15:23:49Z
2019-11-08T13:26:25Z,42.805,6.029,13.2958,4.59958,2469.993,2019-11-08T15:26:52Z
2019-11-08T13:29:28Z,42.805,6.029,13.2958,4.59959,2469.96,2019-11-08T15:29:55Z
2019-11-08T13:32:31Z,42.805,6.029,13.2952,4.59957,2470.007,2019-11-08T15:32:59Z
2019-11-08T13:35:35Z,42.805,6.029,13.2957,4.59961,2469.97,2019-11-08T15:36:02Z
2019-11-08T13:38:38Z,42.805,6.029,13.2961,4.59958,2470.007,2019-11-08T15:39:05Z
2019-11-08T13:41:41Z,42.805,6.029,13.2955,4.59958,2470.007,2019-11-08T15:42:08Z
2019-11-08T13:44:44Z,42.805,6.029,13.2957,4.59959,2469.97,2019-11-08T15:45:12Z
2019-11-08T13:47:48Z,42.805,6.029,13.2961,4.59961,2470.04,2019-11-08T15:48:15Z
2019-11-08T13:50:51Z,42.805,6.029,13.2961,4.59960,2469.97,2019-11-08T15:51:18Z
2019-11-08T13:53:54Z,42.805,6.029,13.2958,4.59958,2469.993,2019-11-08T15:54:21Z
2019-11-08T13:56:57Z,42.805,6.029,13.2961,4.59961,2469.984,2019-11-08T15:57:25Z
2019-11-08T14:00:01Z,42.805,6.029,13.2961,4.59959,2469.984,2019-11-08T16:00:28Z
2019-11-08T14:03:04Z,42.805,6.029,13.2957,4.59961,2469.993,2019-11-08T16:03:31Z
2019-11-08T14:06:07Z,42.805,6.029,13.2958,4.59960,2470.007,2019-11-08T16:06:34Z
2019-11-08T14:09:10Z,42.805,6.029,13.2959,4.59961,2469.96,2019-11-08T16:09:37Z
2019-11-08T14:12:14Z,42.805,6.029,13.2961,4.59961,2469.96,2019-11-08T16:12:41Z
2019-11-08T14:15:17Z,42.805,6.029,13.2957,4.59960,2469.984,2019-11-08T16:15:44Z
2019-11-08T14:18:20Z,42.805,6.029,13.2956,4.59958,2469.993,2019-11-08T16:18:47Z
2019-11-08T14:21:23Z,42.805,6.029,13.2958,4.59959,2469.993,2019-11-08T16:21:50Z
2019-11-08T14:24:27Z,42.805,6.029,13.2959,4.59959,2470.053,2019-11-08T16:24:54Z
2019-11-08T14:27:30Z,42.805,6.029,13.2961,4.59957,2469.97,2019-11-08T16:27:57Z
2019-11-08T14:30:33Z,42.805,6.029,13.2958,4.59960,2469.993,2019-11-08T16:31:01Z
2019-11-08T14:33:37Z,42.805,6.029,13.2956,4.59960,2469.993,2019-11-08T16:34:04Z
2019-11-08T14:36:40Z,42.805,6.029,13.2961,4.59961,2470.017,2019-11-08T16:37:07Z
2019-11-08T14:39:43Z,42.805,6.029,13.2961,4.59961,2470.007,2019-11-08T16:40:10Z
2019-11-08T14:42:46Z,42.805,6.029,13.2957,4.59958,2470.017,2019-11-08T16:43:14Z
2019-11-08T14:45:50Z,42.805,6.029,13.2959,4.59961,2470.03,2019-11-08T16:46:17Z
2019-11-08T14:48:53Z,42.805,6.029,13.2961,4.59961,2470.017,2019-11-08T16:49:20Z
2019-11-08T14:51:56Z,42.805,6.029,13.2961,4.59961,2470.063,2019-11-08T16:52:23Z
2019-11-08T14:54:59Z,42.805,6.029,13.2957,4.59960,2470.017,2019-11-08T16:55:27Z
2019-11-08T14:58:03Z,42.805,6.029,13.2958,4.59960,2470.03,2019-11-08T16:58:30Z
2019-11-08T15:01:06Z,42.805,6.029,13.2957,4.59960,2470.007,2019-11-08T17:01:33Z